RH
85 85 86 78 77 78 87 99 99 96 96 100 100 99 79 67 63 58 57 54 57 55 47 46 44 44 39 46 37 33 38 52 44 34 34 35 31 35 39 52 42 42 49 66
86 84 85 84 78 75 97 98 99 97 99 98 99 87 86 68 68 63 63 62 56 54 49 57 48 48 53 53 41 43 45 46 51 43 38 38 38 38 42 54 56 47 65 71
84 84 85 88 80 76 89 99 100 100 100 97 80 88 84 84 67 65 61 62 60 57 60 52 54 46 50 58 65 56 57 50 72 49 44 46 52 49 47 46 58 42 57 63
81 82 84 86 86 78 82 99 99 84 97 96 95 72 72 79 79 64 64 69 69 65 67 56 56 51 50 49 49 48 57 50 73 52 44 43 45 48 52 68 45 60 56 58
80 78 80 87 86 83 93 99 98 93 86 77 88 88 80 71 70 78 76 76 75 71 74 63 67 60 49 50 49 49 56 69 72 80 47 49 63 58 51 68 61 69 69 60
78 82 80 84 84 91 100 99 90 75 81 85 87 82 79 73 69 72 66 72 75 80 72 72 67 58 54 50 56 61 70 88 88 78 54 56 72 68 69 59 51 49 52 40
73 79 80 83 84 84 99 96 96 96 92 80 77 65 66 75 72 87 69 68 75 64 57 55 54 56 58 64 63 64 90 93 91 77 65 76 72 52 49 54 50 51 45 47
76 79 78 76 79 84 97 96 92 95 88 74 75 73 68 69 72 78 74 67 65 59 68 76 69 71 61 63 65 64 69 75 76 75 67 58 46 51 65 74 56 53 56 69
79 78 78 78 86 84 96 95 95 94 82 82 63 74 73 76 77 77 78 72 73 71 82 87 91 86 75 65 76 65 65 70 74 82 87 80 51 55 58 58 79 60 67 75
79 81 81 82 82 84 95 98 91 96 96 88 72 74 78 75 76 74 76 73 73 73 83 94 87 81 67 82 78 84 84 87 83 74 76 63 47 61 56 72 68 71 72 74
81 82 83 83 82 83 93 98 91 90 96 95 87 90 78 78 74 81 79 79 82 83 85 76 79 86 75 68 60 70 69 80 78 66 90 80 60 64 62 67 76 73 77 88
79 83 81 80 81 85 89 99 92 90 93 97 86 86 84 81 92 73 84 73 80 81 77 81 82 83 80 70 74 66 69 64 70 65 63 62 63 63 66 67 70 77 75 78
81 82 82 83 81 86 92 96 96 94 95 88 84 78 74 90 91 85 78 82 76 78 73 89 82 82 68 81 72 74 74 67 71 68 74 65 61 64 68 70 75 72 71 78
80 81 83 84 82 90 86 93 95 92 93 94 80 69 73 71 84 78 83 77 75 80 82 85 90 85 72 84 70 74 79 75 73 78 78 70 68 73 72 79 77 78 79 79
81 89 82 82 86 89 91 96 93 87 85 91 85 82 78 73 86 86 92 89 78 84 91 91 87 82 88 87 91 91 83 92 88 81 75 70 88 76 77 81 84 77 76 79
82 82 90 87 85 87 94 100 94 90 91 96 96 88 86 79 84 88 94 93 91 89 94 87 80 74 84 98 94 80 80 87 80 75 71 77 82 83 79 76 78 76 73 69
83 83 82 79 78 91 98 93 92 85 89 94 90 90 90 83 86 92 90 90 97 97 98 98 95 85 90 99 90 77 92 93 80 76 74 80 84 76 78 74 75 76 70 67
81 80 79 78 76 79 93 96 84 81 94 93 96 88 98 90 99 100 97 97 96 98 98 98 93 90 97 96 84 80 84 87 84 81 72 73 76 77 78 73 73 74 73 70
80 80 79 85 95 100 96 84 79 96 91 93 92 93 95 94 99 99 99 96 99 99 99 94 81 93 94 86 75 77 88 84 82 79 78 79 76 78 80 75 74 73 73 68
81 85 95 100 98 87 90 94 97 95 98 98 97 86 96 96 100 99 98 99 92 94 95 86 92 86 71 68 64 63 76 76 79 84 88 83 83 82 84 81 73 72 69 67
92 100 100 97 89 99 100 99 97 97 99 94 93 90 99 92 95 98 95 96 90 89 88 93 91 90 75 82 80 78 77 77 72 68 68 70 71 78 85 85 81 80 76 84
89 90 86 91 96 99 98 97 97 96 90 97 96 96 93 97 97 99 88 81 85 83 85 92 92 81 86 82 83 85 79 76 74 70 73 75 75 78 82 84 86 88 89 95
84 90 94 96 98 98 97 98 98 98 93 93 99 99 98 98 96 95 92 84 86 81 93 88 85 81 86 83 84 86 79 78 76 78 79 79 85 88 92 95 96 96 96 95
91 90 100 93 97 93 92 91 92 89 92 93 92 96 91 92 84 90 80 89 84 95 97 86 83 90 88 87 85 82 87 90 88 90 92 96 94 96 95 96 95 95 96 96
90 83 98 96 89 93 94 97 96 95 92 85 88 88 85 89 87 84 89 95 96 90 83 86 92 95 88 90 90 92 94 97 98 96 97 90 96 96 97 96 96 95 95 95
92 90 97 98 96 99 91 95 97 94 91 85 80 81 89 89 85 82 85 83 84 82 94 95 96 95 94 93 93 94 96 95 95 93 93 95 96 96 95 96 96 96 94 94
94 98 99 100 97 99 99 99 95 93 87 90 81 80 76 84 90 86 81 87 89 95 97 98 97 95 96 95 96 97 99 98 97 96 96 96 95 96 95 95 94 93 93 94
Wind_Speed
25 23 19 20 21 19 12 2 5 3 7 8 4 9 14 3 4 3 2 1 0 4 5 4 5 6 1 3 5 7 4 4 5 4 1 2 1 5 7 4 7 4 3 14
25 25 24 22 22 22 6 3 1 1 4 11 6 9 16 1 4 5 6 4 3 1 4 4 3 4 2 3 3 5 6 3 3 2 1 0 5 4 2 3 2 12 8 12
22 25 25 24 23 23 8 3 5 3 3 2 15 12 12 13 5 2 3 4 3 2 2 2 4 2 2 2 2 4 5 3 4 7 3 4 4 5 6 6 5 8 20 19
23 21 25 28 25 25 8 6 4 3 10 13 12 12 5 13 10 8 7 4 5 6 5 5 5 2 2 1 1 2 4 6 3 3 2 3 1 5 8 11 14 12 26 18
22 23 24 24 25 26 7 6 5 0 3 14 18 11 14 19 16 9 6 3 6 4 5 4 5 4 3 4 1 2 2 4 2 2 2 1 7 8 10 13 18 13 16 25
22 21 24 25 28 24 3 3 1 3 5 12 11 18 13 9 11 2 6 7 4 3 3 3 3 6 3 3 7 4 4 6 2 5 0 2 12 11 17 8 9 9 10 14
23 22 22 25 28 25 3 3 4 4 3 9 15 13 16 3 11 7 2 5 5 2 4 5 4 4 0 4 2 3 7 5 4 1 3 6 3 5 7 11 11 13 16 13
23 22 22 24 28 29 6 3 5 4 5 8 5 9 17 11 3 4 5 3 3 5 4 2 0 1 1 2 3 5 3 5 4 3 5 9 10 4 6 8 7 7 17 4
23 23 21 22 22 28 9 5 2 3 7 7 5 9 8 9 10 4 2 3 2 5 2 2 6 5 3 5 3 3 5 2 3 5 5 7 3 3 5 5 10 6 6 9
22 21 21 24 24 27 8 3 2 4 3 0 4 6 10 6 5 3 5 4 3 3 4 4 5 5 5 6 7 7 5 1 10 8 7 8 9 7 6 2 5 4 7 9
23 22 23 25 23 26 12 3 3 5 3 2 2 3 3 4 6 5 4 5 1 2 7 6 5 4 7 5 4 7 10 10 6 6 6 11 8 8 8 4 3 4 8 10
22 23 24 25 25 26 15 3 1 4 4 3 2 2 2 1 4 4 5 4 6 7 5 3 3 3 4 6 6 3 6 7 7 11 9 1 13 5 5 4 4 5 7 9
23 25 26 27 27 29 14 6 4 5 3 2 1 4 4 3 5 1 3 1 3 3 3 4 3 4 4 6 6 5 4 4 4 2 6 10 9 6 4 6 5 4 5 11
23 24 27 26 25 31 10 6 3 5 4 3 4 2 4 12 11 10 5 1 2 4 2 2 3 3 5 4 1 5 4 8 6 6 7 4 10 11 7 8 5 5 7 10
26 19 29 26 23 22 7 5 3 3 5 4 2 2 5 6 9 9 6 7 4 2 3 3 4 2 3 2 0 5 6 7 7 8 6 3 2 2 5 9 9 9 10 10
24 23 28 25 23 20 6 3 2 1 2 3 3 2 4 5 8 5 10 8 6 2 4 3 3 3 4 5 4 5 10 6 4 6 2 2 2 1 0 5 6 8 9 8
26 24 24 23 27 7 4 4 4 11 3 2 2 4 1 3 4 3 4 7 3 3 3 4 3 3 5 2 5 4 4 6 4 3 5 2 4 1 4 3 4 7 6 7
27 25 22 21 19 9 3 2 12 8 5 2 2 2 3 2 3 2 3 4 2 2 3 3 3 3 2 5 7 3 2 5 4 6 1 3 5 5 5 5 8 8 8 9
27 24 23 12 4 3 3 4 14 2 3 5 3 3 3 1 2 2 1 2 3 0 3 4 6 4 7 8 6 6 9 7 7 7 4 4 3 5 5 6 8 7 9 10
30 19 4 3 6 6 18 4 2 1 1 2 3 1 2 3 2 2 3 1 3 4 3 4 4 4 5 4 5 4 10 8 13 8 4 5 4 7 8 9 7 7 9 10
5 3 3 3 21 2 1 4 5 4 4 5 3 4 3 2 2 1 1 3 2 3 3 4 3 4 3 3 4 3 8 11 8 3 3 5 4 8 8 8 8 8 10 10
7 8 8 5 3 2 4 5 4 6 7 6 7 5 3 3 2 2 3 2 1 3 3 3 3 2 3 4 5 5 8 10 7 4 5 5 4 6 7 8 9 9 9 9
4 4 4 4 3 5 5 7 4 3 5 5 4 4 3 3 3 2 2 4 3 4 2 4 3 2 4 5 6 7 7 7 6 5 5 5 5 5 6 7 6 9 9 9
4 4 5 4 3 5 4 2 3 1 3 7 6 3 2 2 2 1 3 1 2 2 2 4 0 3 5 4 4 7 5 5 5 6 6 6 6 4 5 5 8 9 9 9
4 4 3 3 3 2 2 2 1 0 3 7 4 3 2 1 4 1 3 3 3 4 3 1 2 4 6 5 4 5 5 4 4 3 5 6 5 5 5 6 7 8 9 9
3 2 2 1 3 2 3 2 1 2 3 3 3 3 3 1 3 3 4 5 5 2 1 1 2 3 3 4 5 6 6 6 6 6 4 4 5 5 6 7 6 7 9 9
2 1 1 2 1 2 1 1 2 2 2 3 3 4 3 3 2 3 2 2 0 1 1 2 2 3 5 6 6 6 7 6 6 4 4 3 4 6 7 7 5 7 7 7
Wind_Direction
194 184 189 201 179 166 154 189 178 173 167 178 179 198 222 202 188 173 254 323 129 157 152 152 187 205 86 334 153 161 184 133 180 185 73 340 280 204 179 204 238 232 273 265
191 186 179 201 186 166 131 195 139 299 179 180 178 195 218 202 202 178 177 220 236 200 159 123 157 143 66 19 138 154 186 176 165 210 128 25 232 190 140 97 61 251 257 263
191 190 181 184 191 177 149 135 184 147 190 217 206 192 198 213 198 265 180 201 150 122 180 15 145 126 32 24 112 96 109 127 188 248 184 132 204 196 194 202 241 271 251 277
188 187 186 182 192 188 158 173 207 203 191 198 217 194 179 196 201 204 185 205 192 165 189 147 161 154 109 51 127 78 155 193 149 226 133 167 225 224 194 210 237 242 274 270
201 193 188 189 184 194 186 157 174 132 175 191 201 200 210 206 200 169 189 179 183 176 172 178 170 124 192 210 85 98 18 140 129 286 228 220 266 240 232 229 249 263 265 279
209 197 191 191 181 193 103 148 86 136 160 172 184 215 211 184 179 202 156 167 124 172 214 173 196 200 194 177 159 148 138 143 120 270 20 79 271 230 221 236 237 233 244 265
213 206 199 192 186 182 147 219 111 116 172 172 196 207 207 157 187 153 159 151 130 174 105 96 67 51 27 189 170 151 146 121 147 218 152 244 265 195 205 222 244 228 254 254
209 209 207 201 197 184 151 262 140 170 175 188 152 187 192 179 87 172 176 137 150 150 80 87 79 18 279 195 186 160 163 138 152 203 213 304 283 200 174 197 275 241 243 210
205 206 204 193 187 187 170 255 118 129 181 202 160 162 159 179 193 161 178 89 121 84 92 114 197 210 199 187 152 69 96 56 184 163 217 248 248 180 144 115 275 197 197 182
204 201 198 190 181 178 134 235 149 104 123 68 156 167 176 133 137 170 141 154 148 121 141 183 192 215 187 194 189 168 148 122 208 208 231 265 253 152 131 205 251 174 192 175
200 196 194 185 184 178 150 215 163 134 107 91 84 34 120 125 164 144 163 128 217 122 199 200 184 206 201 195 182 175 176 173 189 199 228 262 145 121 202 205 151 184 183 179
195 193 190 188 176 174 150 137 135 107 90 105 80 136 148 77 358 165 184 174 167 170 171 191 158 180 181 183 223 173 205 201 185 195 205 181 191 196 198 171 160 201 190 183
188 189 182 172 179 177 193 137 130 80 94 13 167 191 208 178 202 142 177 223 170 179 172 153 167 211 163 184 219 202 236 175 224 159 210 224 216 219 208 198 209 197 197 170
179 180 175 176 181 175 148 125 129 100 103 147 261 111 193 179 233 245 207 298 46 100 135 146 165 192 196 196 237 215 194 152 200 255 268 276 249 229 216 190 189 172 163 178
164 188 172 173 173 165 109 84 83 117 125 179 226 283 207 179 166 181 181 203 179 196 159 158 200 152 152 198 306 232 190 183 191 245 212 200 225 283 226 182 194 194 173 168
158 173 148 152 158 130 91 91 303 146 125 73 24 205 228 193 153 150 262 204 198 203 169 167 185 204 184 196 236 236 207 198 210 235 148 136 102 26 210 201 197 185 191 181
152 154 151 154 147 132 132 164 164 166 104 84 320 308 247 196 122 178 177 200 177 147 165 185 171 199 179 207 235 247 220 180 177 148 137 177 192 212 175 158 149 158 160 166
153 154 151 144 122 93 326 359 140 123 95 146 209 267 335 183 149 208 194 140 139 150 158 122 172 143 171 239 237 232 174 149 165 172 126 90 113 127 143 139 146 148 159 159
144 137 131 115 61 108 244 116 130 69 124 169 197 204 208 230 101 141 131 94 153 119 186 191 169 159 218 222 198 192 188 185 170 147 127 138 165 164 166 162 167 168 167 169
132 124 107 127 166 167 131 103 102 343 309 166 230 179 221 147 193 107 126 133 164 189 180 131 208 242 247 211 198 173 172 155 145 137 174 185 195 190 183 193 186 184 175 169
115 119 125 82 135 136 92 150 163 169 201 204 207 174 143 182 150 194 191 152 151 192 164 199 206 255 221 113 132 135 157 154 162 118 118 166 166 181 178 181 178 170 168 170
153 112 101 109 104 162 235 161 159 194 201 160 157 170 148 152 126 185 180 134 117 225 137 171 240 239 99 119 116 121 141 149 149 136 129 136 138 161 175 172 168 165 148 136
101 74 111 163 160 208 211 175 190 197 162 153 154 136 137 137 175 106 125 176 187 126 172 226 230 132 129 126 123 128 132 136 139 124 121 126 125 128 143 145 133 131 136 145
98 118 118 195 211 246 203 196 169 103 119 138 128 119 151 142 102 128 132 108 145 135 229 232 103 162 144 135 134 133 146 147 149 144 129 125 131 119 119 129 140 141 147 149
73 70 152 217 212 210 256 138 86 61 158 134 102 75 91 50 99 51 117 145 230 219 231 209 156 169 154 146 143 124 123 124 111 119 130 142 134 140 137 141 137 136 138 145
63 58 177 233 181 155 173 166 174 200 154 101 71 120 80 131 127 140 203 166 216 229 174 192 122 183 166 125 113 115 109 101 115 128 134 132 141 154 149 131 133 141 149 151
35 27 360 345 40 63 101 173 204 149 90 98 121 104 176 111 129 182 206 202 213 173 91 86 152 162 127 115 114 118 118 123 134 139 142 128 118 125 133 145 146 145 143 138